Regional Weather Roundup
Issued by NWS State College, PA

Home | Current Version | Previous Version | Graphics & Text | Print | Product List | Glossary Off
Versions: 1 2 3 4 5 6 7 8 9 10 11 12 13 14 15 16 17 18 19 20 21 22 23 24 25 26 27 28 29 30 31 32 33 34 35 36 37 38 39 40 41 42 43 44 45 46 47 48 49 50

000
ASUS41 KCTP 222103
RWRCTP

REGIONAL WEATHER ROUNDUP
NATIONAL WEATHER SERVICE STATE COLLEGE PA
500 PM EDT SAT JUL 22 2017

Note: "fair" indicates few or no clouds below 12,000 feet with no
significant weather and/or obstructions to visibility.

* = STATION THAT DOES NOT REPORT PRECIPITATION /E.G. RAIN...SNOW...ETC/
    THUNDER OR FOG.

PAZ002>004-007>009-013>016-020>023-029>032-222200-
WESTERN PENNSYLVANIA

CITY           SKY/WX    TMP DP  RH WIND       PRES   REMARKS
ERIE           CLOUDY    75  70  84 NE13      29.77F
MEADVILLE      CLOUDY    76  70  82 CALM      29.80F
FRANKLIN*      CLOUDY    73  68  83 SW9       29.81F
NEW CASTLE     MOCLDY    79  73  82 SW5       29.80F
BEAVER COUNTY  CLOUDY    75  70  83 SW6       29.81
BUTLER*        PTSUNNY   79  72  78 SW9       29.80F
PITTSBURGH INT PTSUNNY   77  71  82 SW7       29.81F
PITTSBURGH     CLOUDY    77  68  73 SW7       29.81F
INDIANA*       CLOUDY    75  72  88 W8        29.85F
LATROBE        PTSUNNY   73  72  94 SW17      29.85F
WASHINGTON CO* PTSUNNY   75  72  88 S6        29.81F
$$

PAZ004>006-010>012-017>019-024>028-033>037-041-042-045-046-049>053-222200-
CENTRAL PENNSYLVANIA

CITY           SKY/WX    TMP DP  RH WIND       PRES   REMARKS
BRADFORD       CLOUDY    75  68  78 E9        29.83F
DUBOIS         CLOUDY    70  67  90 SW12      29.82F
CLEARFIELD     RAIN      71  71 100 W8        29.83R FOG
JOHNSTOWN      CLOUDY    73  67  81 W12       29.87F
ALTOONA        PTSUNNY   79  70  74 SW9       29.83F
STATE COLLEGE  RAIN      73  72  94 W13       29.81S
WILLIAMSPORT   RAIN      77  74  90 CALM      29.77F FOG
SELINSGROVE    RAIN      72  71  97 N9        29.79S FOG
FT INDIANTOWN  CLOUDY    75  74  97 SE5       29.79F
CAPITAL CITY   CLOUDY    80  74  81 E6        29.77F
HARRISBURG     CLOUDY    78  74  87 NE5       29.77F
YORK           CLOUDY    79  73  82 SW9       29.80F
$$

PAZ038>040-043-044-047-048-054-055-060>062-067>071-222200-
EASTERN PENNSYLVANIA

CITY           SKY/WX    TMP DP  RH WIND       PRES   REMARKS
SCRANTON       CLOUDY    83  62  49 NE3       29.80F
MOUNT POCONO   CLOUDY    77  65  66 SE6       29.86F
ALLENTOWN      LGT RAIN  86  69  56 CALM      29.77F
QUAKERTOWN*    CLOUDY    86  70  58 CALM      29.79F
READING        TSTM      74  72  93 SW10G25   29.79R FOG
LANCASTER      CLOUDY    75  72  90 N14G22    29.80R
COATESVILLE    CLOUDY    84  73  70 VRB6      29.79F
POTTSTOWN      CLOUDY    86  69  56 S5        29.78F
BLUE BELL      PTSUNNY   86  68  54 SW5       29.78F
DOYLESTOWN     CLOUDY    88  67  49 SW3       29.77F
WILLOW GROVE   NOT AVBL
NORTH PHILA    PTSUNNY   92  69  47 CALM      29.77F HX  97
PHILADELPHIA   CLOUDY    91  69  48 S10       29.76F HX  96
$$



USA.gov is the U.S. government's official web portal to all federal, state and local government web resources and services.